Flag for U.S.A. Weather past 2 weeks in Butte, Montana, U.S.A.

Now
25 °F

Clear.


Feels Like: 21 °F
Forecast: 13 / 31 °F
Wind: 3 mph from South

Location: Mooney Airport

Current Time: Jan 29, 2015 at 10:48:20 PM

Latest Report: Jan 29, 2015 at 9:53 PM


Visibility: 10 mi

Pressure: 30.48 "Hg

Humidity: 85%

Dew point: 21 °F

Location of ButteLocation

Historic Weather in Butte — Graph

°F

Butte temperature yesterday

Maximum temperature yesterday: 41 °F (at 11:53 AM)
Minimum temperature yesterday: 22 °F (at 11:53 PM)
Average temperature yesterday: 33 °F

Past Weeks' High & Low Weather Summary

 TemperatureHumidityPressure
High54 °F (Jan 25, 1:53 PM)93% (Jan 25, 7:53 AM)30.61 "Hg (Jan 25, 7:53 AM)
Low2 °F (Jan 15, 5:53 AM)35% (Jan 25, 1:53 PM)29.92 "Hg (Jan 18, 7:53 AM)
Average28 °F72%30.30 "Hg
* Reported Jan 14 8:53 PM — Jan 29 8:53 PM, Butte, Weather by CustomWeather, © 2014

Note: Actual official high and low records may vary slightly from our data, if they occured in-between our weather recording intervals... More about our weather records

Advertising

Butte weather history for previous 24 hours

 ConditionsComfort  
Time TempWeatherWind HumidityBarometerVisibility
8:53 PM
Jan 29
26 °FClear.No wind81%30.48 "Hg10 mi
7:53 PM27 °FClear.5 mph78%30.47 "Hg10 mi
6:53 PM28 °FClear.No wind78%30.47 "Hg10 mi
5:53 PM30 °FClear.5 mph75%30.45 "Hg10 mi
4:53 PM38 °FSunny.No wind55%30.41 "Hg10 mi
3:53 PM39 °FSunny.5 mph53%30.40 "Hg10 mi
2:53 PM40 °FSunny.3 mph49%30.39 "Hg10 mi
1:53 PM39 °FSunny.3 mph50%30.41 "Hg10 mi
12:53 PM36 °FSunny.No wind57%30.44 "Hg10 mi
11:53 AM31 °FSunny.No wind69%30.49 "Hg10 mi
10:53 AM27 °FSunny.No wind78%30.53 "Hg10 mi
9:53 AM21 °FSunny.No wind92%30.56 "Hg10 mi
8:53 AM17 °FSunny.No wind92%30.58 "Hg10 mi
7:53 AM16 °FClear.No wind87%30.57 "Hg10 mi
6:53 AM16 °FClear.5 mph87%30.54 "Hg10 mi
5:53 AM17 °FClear.3 mph83%30.54 "Hg10 mi
4:53 AM18 °FClear.No wind84%30.52 "Hg10 mi
3:53 AM18 °FClear.No wind88%30.51 "Hg10 mi
2:53 AM20 °FClear.3 mph89%30.50 "Hg10 mi
1:53 AM21 °FClear.No wind88%30.49 "Hg10 mi
12:53 AM21 °FClear.3 mph88%30.50 "Hg10 mi
11:53 PM
Jan 28
22 °FClear.5 mph89%30.49 "Hg10 mi
10:53 PM25 °FClear.3 mph81%30.48 "Hg10 mi
Weather by CustomWeather, © 2014

See weather overviewHow to use our weather pages